[[{"header":{"parameterUnit":"m.s-1","parameterCategory":1,"la1":30.2991,"la2":30.254,"lo1":-89.0895,"lo2":-89.0444,"dy":0.0017,"dx":0.0017,"nx":28,"ny":28,"refTime":"2024-02-12T03:00:00:Z","depth":0,"parameterNumber":2,"parameterNumberName":"U-component_of_WINDS"},"data":[0,0,0,0,0,0,0,0,0,0,0,0,0,0,0,0,0,0,0,0,0,0,0,0,0,0,0,0,0,0,0,0,0,0,0,0,0,0,0,0,0,0,0,0,0,0,0,0,0,0,0,0,0,0,0,0,0,0,-0.4662,-0.4663,0,-0.4717,-0.4718,-0.4718,-0.4693,-0.4692,-0.469,-0.4689,-0.4748,-0.4751,-0.4753,0,0,0,0,0,0,0,0,0,0,0,0,0,-0.4538,-0.4541,-0.4662,-0.4663,-0.4664,-0.4717,-0.4718,-0.4718,-0.4693,-0.4692,-0.469,-0.4688,-0.4747,-0.475,-0.4754,0,0,0,0,0,0,0,0,0,0,0,0,0,-0.4593,-0.4541,-0.4662,-0.4657,-0.4658,-0.4717,-0.4718,-0.4719,-0.4694,-0.4692,-0.469,-0.4688,-0.4746,-0.475,-0.4754,-0.4822,0,0,-0.4767,-0.4769,0,0,0,0,0,0,0,0,-0.459,-0.4597,-0.4657,-0.4658,-0.4658,-0.4696,-0.4696,-0.4753,-0.4694,-0.468,-0.4689,-0.4687,-0.4732,-0.4738,-0.4753,-0.4825,-0.4827,-0.4768,-0.477,-0.4772,-0.4773,0,0,0,0,0,0,0,-0.4586,-0.4595,-0.4684,-0.4658,-0.4659,-0.4653,-0.4659,-0.4706,-0.4717,-0.4681,-0.4679,-0.4686,-0.4732,-0.4749,-0.4754,-0.4828,-0.4767,-0.4771,-0.4774,-0.4776,-0.496,-0.4962,0,0,0,0,0,0,-0.4582,-0.4592,-0.4682,-0.4686,-0.4618,-0.4657,-0.4663,-0.4686,-0.4717,-0.4719,-0.4688,-0.4685,-0.4742,-0.4749,-0.4756,-0.4838,-0.4772,-0.4776,-0.4778,-0.4957,-0.496,-0.4963,0,0,0,0,0,0,-0.4579,-0.459,-0.468,-0.4638,-0.4649,-0.4662,-0.4687,-0.4688,-0.4704,-0.4722,-0.4724,-0.4702,-0.4741,-0.475,-0.4806,-0.484,-0.4778,-0.4782,-0.4955,-0.4958,-0.4962,-0.5004,0,0,0,0,0,0,-0.4576,-0.4589,-0.4615,-0.4639,-0.4652,-0.4729,-0.4689,-0.4691,-0.4712,-0.4708,-0.4736,-0.4739,-0.474,-0.48,-0.481,-0.4845,-0.4785,-0.4952,-0.4956,-0.496,-0.4999,-0.5008,-0.5016,0,0,0,0,0,-0.4571,-0.4625,-0.4616,-0.4627,-0.4683,-0.4731,-0.4738,-0.4738,-0.4714,-0.4741,-0.4752,-0.4738,-0.4834,-0.4805,-0.4817,-0.4854,-0.495,-0.4955,-0.496,-0.4996,-0.5007,-0.5016,0,0,0,0,0,0,-0.4605,-0.4628,-0.4619,-0.4681,-0.4704,-0.4726,-0.4759,-0.4749,-0.478,-0.4775,-0.4774,-0.4781,-0.4839,-0.4852,-0.4819,-0.4922,-0.4888,-0.4896,-0.4912,-0.4922,-0.493,-0.4927,-0.4789,0,0,0,0,0,-0.462,-0.4655,-0.4673,-0.4727,-0.4739,-0.4747,-0.4768,-0.4765,-0.4789,-0.4799,-0.4814,-0.4839,-0.4875,-0.4899,-0.4933,-0.5,-0.5007,-0.5031,-0.5039,-0.5046,-0.5054,-0.5092,-0.5103,-0.498,-0.498,-0.498,0,0,-0.4651,-0.4667,-0.469,-0.4734,-0.4752,-0.479,-0.4756,-0.4797,-0.4826,-0.4806,-0.486,-0.4872,-0.4899,-0.4962,-0.499,-0.4974,-0.5089,-0.5053,-0.5058,-0.5062,-0.5098,-0.511,-0.512,-0.4984,-0.4983,-0.4982,0,0,-0.4727,-0.4742,-0.4789,-0.4807,-0.4834,-0.4839,-0.485,-0.4874,-0.4881,-0.4935,-0.4921,-0.4955,-0.5016,-0.5037,-0.5055,-0.5139,-0.5128,-0.515,-0.5194,-0.5231,-0.524,-0.5249,-0.528,-0.5291,-0.5157,-0.5157,-0.5157,0,-0.4762,-0.4818,-0.4815,-0.4858,-0.4878,-0.486,-0.4909,-0.4927,-0.4963,-0.4978,-0.4959,-0.5036,-0.5054,-0.5121,-0.5142,-0.5156,-0.517,-0.5148,-0.5239,-0.5248,-0.5256,-0.5286,-0.5297,-0.5159,-0.5159,-0.5159,-0.5159,0,-0.4861,-0.49,-0.4935,-0.497,-0.4994,-0.5039,-0.5044,-0.5069,-0.5064,-0.5071,-0.5127,-0.5147,-0.5185,-0.52,-0.5196,-0.5268,-0.5257,-0.5238,-0.5206,-0.527,-0.5298,-0.531,-0.5163,-0.5162,-0.5161,-0.5161,0,0,-0.4962,-0.4994,-0.5007,-0.5023,-0.5051,-0.5082,-0.5126,-0.5163,-0.5185,-0.521,-0.5249,-0.5301,-0.5284,-0.5305,-0.5303,-0.5335,-0.5402,-0.5313,-0.5314,-0.533,-0.5483,-0.5499,-0.5512,-0.5393,-0.5396,-0.5397,-0.5482,0,-0.5041,-0.5119,-0.5117,-0.519,-0.5227,-0.521,-0.5249,-0.5271,-0.5279,-0.5312,-0.532,-0.5358,-0.5332,-0.5345,-0.5376,-0.5387,-0.5433,-0.5381,-0.5431,-0.5433,-0.5427,-0.5526,-0.5543,-0.5621,-0.5493,-0.5494,-0.5496,0,-0.5145,-0.5174,-0.525,-0.5273,-0.5288,-0.5323,-0.5357,-0.5388,-0.5412,-0.5416,-0.5439,-0.5432,-0.5478,-0.5442,-0.5507,-0.5471,-0.5491,-0.55,-0.5503,-0.551,-0.547,-0.5538,-0.5646,-0.5659,-0.5513,-0.5511,-0.551,0,-0.5213,-0.527,-0.5324,-0.5338,-0.5365,-0.5391,-0.5404,-0.5426,-0.5448,-0.5477,-0.5492,-0.5526,-0.5546,-0.5573,-0.5576,-0.5549,-0.5641,-0.5605,-0.5647,-0.5647,-0.5669,-0.5668,-0.5785,-0.5678,-0.5678,-0.5678,-0.5678,0,-0.5303,-0.5351,-0.5355,-0.5388,-0.5441,-0.5439,-0.5492,-0.5502,-0.5522,-0.5558,-0.5545,-0.5579,-0.5579,-0.5614,-0.5616,-0.567,-0.5678,-0.5684,-0.5684,-0.5686,-0.5686,-0.5701,-0.5696,-0.5681,-0.568,-0.568,-0.5679,0,-0.539,-0.5394,-0.5451,-0.5472,-0.5478,-0.5517,-0.5535,-0.5567,-0.5573,-0.5619,-0.5629,-0.5639,-0.5679,-0.5684,-0.5731,-0.5732,-0.5798,-0.5791,-0.579,-0.5789,-0.5831,-0.5828,-0.5964,-0.5982,-0.5862,-0.5863,-0.5864,0,-0.5448,-0.5484,-0.5509,-0.5532,-0.5546,-0.5582,-0.5605,-0.5603,-0.5627,-0.5658,-0.5687,-0.5725,-0.5756,-0.5821,-0.5833,-0.5869,-0.5865,-0.5909,-0.587,-0.5871,-0.5868,-0.5866,-0.5871,-0.5918,-0.5919,-0.592,-0.5921,0,-0.5552,-0.5552,-0.5585,-0.5618,-0.5645,-0.5672,-0.5696,-0.5716,-0.5717,-0.5745,-0.5786,-0.581,-0.5857,-0.5896,-0.5931,-0.5945,-0.5935,-0.5933,-0.5945,-0.5949,-0.5947,-0.595,-0.5813,-0.5931,-0.593,-0.5929,-0.5928,-0.5928,-0.5628,-0.566,-0.5682,-0.5719,-0.5737,-0.5761,-0.5792,-0.5801,-0.5835,-0.5873,-0.587,-0.5916,-0.5939,-0.5985,-0.6002,-0.6037,-0.6023,-0.604,-0.6044,-0.6049,-0.6054,-0.5939,-0.6044,-0.6043,-0.6043,-0.6043,-0.6043,0,-0.5733,-0.5746,-0.578,-0.5815,-0.5844,-0.5829,-0.5856,-0.5882,-0.5921,-0.5944,-0.5974,-0.6022,-0.6059,-0.6074,-0.6111,-0.6137,-0.6133,-0.6147,-0.6146,-0.615,-0.6064,-0.6051,-0.6149,-0.6149,-0.6149,-0.6149,-0.6149,-0.6149,-0.5791,-0.5845,-0.5848,-0.591,-0.5924,-0.5967,-0.5984,-0.6006,-0.6024,-0.6077,-0.6108,-0.6117,-0.6136,-0.6175,-0.6209,-0.6212,-0.6227,-0.6244,-0.6245,-0.6166,-0.6155,-0.6145,-0.6133,-0.6247,-0.6247,-0.6328,-0.6329,-0.6329]},{"header":{"parameterUnit":"m.s-1","parameterCategory":1,"la1":30.2991,"la2":30.254,"lo1":-89.0895,"lo2":-89.0444,"dy":0.0017,"dx":0.0017,"nx":28,"ny":28,"refTime":"2024-02-12T03:00:00:Z","depth":0,"parameterNumber":3,"parameterNumberName":"V-component_of_WINDS"},"data":[0,0,0,0,0,0,0,0,0,0,0,0,0,0,0,0,0,0,0,0,0,0,0,0,0,0,0,0,0,0,0,0,0,0,0,0,0,0,0,0,0,0,0,0,0,0,0,0,0,0,0,0,0,0,0,0,0,0,-3.5134,-3.5136,0,-3.5273,-3.5275,-3.5277,-3.5235,-3.5232,-3.5229,-3.5226,-3.5367,-3.5373,-3.538,0,0,0,0,0,0,0,0,0,0,0,0,0,-3.4832,-3.4837,-3.5134,-3.5136,-3.5138,-3.5273,-3.5275,-3.5277,-3.5235,-3.5232,-3.5228,-3.5225,-3.5365,-3.5372,-3.538,0,0,0,0,0,0,0,0,0,0,0,0,0,-3.4966,-3.4839,-3.5134,-3.5133,-3.5135,-3.5273,-3.5275,-3.5277,-3.5236,-3.5232,-3.5227,-3.5223,-3.5362,-3.5372,-3.5381,-3.5528,0,0,-3.5411,-3.5415,0,0,0,0,0,0,0,0,-3.4958,-3.4977,-3.5132,-3.5134,-3.5135,-3.5232,-3.522,-3.5361,-3.5237,-3.5197,-3.5226,-3.5221,-3.5326,-3.5338,-3.5374,-3.5535,-3.5541,-3.5412,-3.5418,-3.5422,-3.5424,0,0,0,0,0,0,0,-3.4949,-3.4971,-3.5189,-3.5134,-3.5136,-3.5126,-3.514,-3.5247,-3.5284,-3.5201,-3.5198,-3.5215,-3.5326,-3.5364,-3.5377,-3.5543,-3.5411,-3.542,-3.5426,-3.543,-3.5832,-3.5837,0,0,0,0,0,0,-3.4939,-3.4963,-3.5185,-3.5193,-3.5034,-3.5135,-3.5151,-3.5205,-3.5283,-3.529,-3.5219,-3.5212,-3.535,-3.5365,-3.5381,-3.556,-3.5422,-3.5431,-3.5436,-3.5828,-3.5834,-3.5839,0,0,0,0,0,0,-3.4932,-3.4959,-3.5179,-3.5078,-3.5105,-3.5145,-3.5206,-3.5211,-3.5249,-3.5296,-3.5303,-3.5251,-3.5347,-3.5368,-3.5492,-3.5564,-3.5435,-3.5444,-3.5822,-3.5829,-3.5836,-3.5917,0,0,0,0,0,0,-3.4924,-3.4957,-3.5013,-3.5079,-3.5111,-3.5288,-3.5211,-3.5216,-3.5266,-3.526,-3.5329,-3.5336,-3.5345,-3.5478,-3.5502,-3.5575,-3.5451,-3.5816,-3.5825,-3.5834,-3.5908,-3.5926,-3.5941,0,0,0,0,0,-3.4913,-3.503,-3.5016,-3.5043,-3.5182,-3.5293,-3.531,-3.5319,-3.5272,-3.5329,-3.536,-3.5334,-3.5552,-3.5491,-3.5518,-3.5595,-3.5811,-3.5823,-3.5833,-3.59,-3.5922,-3.5941,0,0,0,0,0,0,-3.497,-3.5038,-3.5024,-3.5166,-3.5224,-3.5285,-3.5357,-3.5342,-3.5414,-3.5405,-3.5412,-3.5428,-3.5556,-3.5587,-3.5519,-3.5741,-3.5675,-3.5691,-3.5716,-3.5738,-3.5754,-3.5744,-3.5459,0,0,0,0,0,-3.4999,-3.5084,-3.5138,-3.5258,-3.5288,-3.5318,-3.5366,-3.5368,-3.5428,-3.5452,-3.5492,-3.5551,-3.5633,-3.5687,-3.5765,-3.5912,-3.5927,-3.5977,-3.5994,-3.6008,-3.6023,-3.6104,-3.6128,-3.5875,-3.5875,-3.5875,0,0,-3.506,-3.5108,-3.516,-3.527,-3.5316,-3.5403,-3.5339,-3.5433,-3.5499,-3.5467,-3.5588,-3.5619,-3.5685,-3.5822,-3.5884,-3.5852,-3.6096,-3.6022,-3.6032,-3.604,-3.6118,-3.6142,-3.6163,-3.5882,-3.5881,-3.588,0,0,-3.5216,-3.526,-3.5365,-3.5412,-3.5482,-3.5501,-3.5526,-3.5591,-3.5611,-3.5732,-3.571,-3.5787,-3.5928,-3.5977,-3.602,-3.6195,-3.6175,-3.622,-3.6308,-3.6387,-3.6407,-3.6425,-3.6489,-3.6512,-3.6234,-3.6235,-3.6235,0,-3.5282,-3.5414,-3.5421,-3.5519,-3.5568,-3.5544,-3.565,-3.5695,-3.5787,-3.5821,-3.5784,-3.5961,-3.6004,-3.6153,-3.6196,-3.6231,-3.626,-3.6213,-3.6404,-3.6422,-3.6438,-3.6499,-3.6523,-3.624,-3.6239,-3.6239,-3.6238,0,-3.5493,-3.5584,-3.5661,-3.5751,-3.5809,-3.5911,-3.5933,-3.5991,-3.5987,-3.6011,-3.6135,-3.6186,-3.6274,-3.6309,-3.6306,-3.6458,-3.6436,-3.6401,-3.6335,-3.6467,-3.6525,-3.6548,-3.6247,-3.6245,-3.6244,-3.6243,0,0,-3.5689,-3.5782,-3.581,-3.5852,-3.5927,-3.5998,-3.6098,-3.6186,-3.6236,-3.6299,-3.6385,-3.6505,-3.6473,-3.6522,-3.6525,-3.6594,-3.6732,-3.6551,-3.6553,-3.6584,-3.6904,-3.6931,-3.6958,-3.6718,-3.6722,-3.6726,-3.6899,0,-3.5852,-3.603,-3.604,-3.6202,-3.6287,-3.6265,-3.6353,-3.6409,-3.6433,-3.6509,-3.6535,-3.6621,-3.6572,-3.6602,-3.667,-3.6701,-3.6796,-3.6688,-3.6798,-3.6802,-3.6784,-3.6987,-3.7016,-3.7176,-3.6921,-3.6925,-3.6928,0,-3.6067,-3.6139,-3.6309,-3.6374,-3.641,-3.6489,-3.6571,-3.6643,-3.6706,-3.6719,-3.6774,-3.6767,-3.687,-3.6799,-3.6942,-3.6868,-3.6913,-3.6935,-3.6942,-3.6954,-3.6874,-3.7006,-3.7228,-3.7252,-3.6963,-3.696,-3.6957,0,-3.6195,-3.6334,-3.6454,-3.649,-3.6568,-3.6624,-3.6659,-3.6718,-3.677,-3.6841,-3.6875,-3.6957,-3.7002,-3.7065,-3.708,-3.7027,-3.7223,-3.7153,-3.7237,-3.7237,-3.7281,-3.7278,-3.7514,-3.7308,-3.7307,-3.7307,-3.7306,0,-3.6377,-3.6483,-3.6513,-3.6588,-3.6705,-3.6715,-3.6831,-3.6862,-3.6915,-3.6995,-3.698,-3.7055,-3.707,-3.7148,-3.716,-3.7278,-3.7297,-3.7311,-3.7313,-3.7314,-3.7312,-3.7344,-3.7334,-3.7313,-3.7312,-3.731,-3.7309,0,-3.6541,-3.6565,-3.6695,-3.6759,-3.6777,-3.6862,-3.6916,-3.6987,-3.701,-3.7111,-3.7135,-3.7171,-3.7263,-3.7284,-3.7392,-3.74,-3.754,-3.753,-3.7519,-3.7519,-3.7603,-3.7595,-3.7869,-3.7906,-3.7674,-3.7676,-3.7678,0,-3.6656,-3.6737,-3.681,-3.6863,-3.6901,-3.6986,-3.704,-3.7052,-3.7109,-3.7187,-3.725,-3.7339,-3.7412,-3.756,-3.7595,-3.7678,-3.7671,-3.7762,-3.7684,-3.7682,-3.7675,-3.7671,-3.7679,-3.7777,-3.778,-3.7782,-3.7783,0,-3.6859,-3.6868,-3.6946,-3.703,-3.7095,-3.716,-3.7223,-3.7267,-3.7288,-3.7352,-3.7447,-3.7503,-3.7615,-3.7705,-3.7788,-3.7823,-3.7808,-3.7807,-3.7832,-3.7833,-3.7824,-3.7832,-3.7561,-3.7801,-3.7799,-3.7798,-3.7797,-3.7796,-3.7004,-3.7075,-3.7138,-3.7226,-3.7275,-3.7335,-3.7405,-3.7437,-3.7516,-3.7609,-3.7611,-3.7714,-3.7775,-3.7886,-3.7927,-3.8007,-3.7979,-3.8014,-3.8023,-3.8032,-3.804,-3.781,-3.8022,-3.8021,-3.8021,-3.8021,-3.802,0,-3.7208,-3.7247,-3.7328,-3.7418,-3.7487,-3.7466,-3.7535,-3.7594,-3.7685,-3.7744,-3.7817,-3.7925,-3.8013,-3.8055,-3.8142,-3.8198,-3.8193,-3.822,-3.8217,-3.8226,-3.8059,-3.8031,-3.8223,-3.8223,-3.8223,-3.8223,-3.8223,-3.8223,-3.7322,-3.7443,-3.7459,-3.7604,-3.7642,-3.7744,-3.7785,-3.784,-3.7887,-3.801,-3.8082,-3.811,-3.8162,-3.8253,-3.8332,-3.8342,-3.8375,-3.8407,-3.8414,-3.8258,-3.8237,-3.8218,-3.8191,-3.8414,-3.8414,-3.8574,-3.8575,-3.8576]}]]